EC1DIR-13 Weather Reports


time (UTC)temp
C
wind
direction
speed
KPH
gust
KPH
rain 1hr
cm
rain 24hr
cm
rain mn
cm
humidity
%
barometer
mb
20260506220016 11 15 0.0 0.0 0.00 0.00 0.00 35 1012.1
20260506214510 11 14 0.0 0.0 0.00 0.00 0.00 33 1012.2
20260506213013 12 18 0.0 0.0 0.00 0.00 0.00 33 1012.2
20260506211502 12 18 0.0 0.0 0.00 0.00 0.00 32 1012.3
20260506210057 12 18 0.0 0.0 0.00 0.00 0.00 31 1012.3
20260506204553 12 14 0.0 0.0 0.00 0.00 0.00 29 1012.3
20260506203052 12 4 0.0 0.0 0.00 0.00 0.00 28 1012.2
20260506201604 13 66 0.0 0.0 0.00 0.00 0.00 28 1012.2
20260506200039 13 73 0.0 0.0 0.00 0.00 0.00 27 1012.1
20260506194540 14 91 0.0 0.0 0.00 0.00 0.00 26 1012.1
20260506193035 15 91 0.0 0.0 0.00 0.00 0.00 23 1011.9
20260506191527 16 91 0.0 0.0 0.00 0.00 0.00 19 1011.9
20260506190023 16 91 0.0 3.2 0.00 0.00 0.00 15 1011.8
20260506184518 17 97 0.0 0.0 0.00 0.00 0.00 12 1011.7
20260506183014 17 108 0.0 6.4 0.00 0.00 0.00 8 1011.7
20260506181510 18 114 0.0 1.6 0.00 0.00 0.00 8 1011.7
20260506180006 18 146 0.0 6.4 0.00 0.00 0.00 7 1011.6
20260506174501 18 152 0.0 0.0 0.00 0.00 0.00 10 1011.7
20260506173118 18 121 0.0 6.4 0.00 0.00 0.00 8 1011.7
20260506171557 19 178 0.0 0.0 0.00 0.00 0.00 7 1011.7
20260506170050 18 89 0.0 3.2 0.00 0.00 0.00 8 1011.8
20260506164544 20 160 0.0 4.8 0.00 0.00 0.00 5 1011.7
20260506163058 18 78 0.0 4.8 0.00 0.00 0.00 9 1011.8
20260506161543 18 148 0.0 6.4 0.00 0.00 0.00 9 1011.8
20260506160042 18 170 1.6 8.0 0.00 0.00 0.00 9 1011.9
20260506154543 17 106 0.0 0.0 0.00 0.00 0.00 12 1012.0
20260506153041 17 187 0.0 0.0 0.00 0.00 0.00 13 1012.0
20260506151535 17 189 0.0 6.4 0.00 0.00 0.00 11 1012.3
20260506150033 19 184 0.0 14.5 0.00 0.00 0.00 9 1012.4
20260506144530 18 359 0.0 14.5 0.00 0.00 0.00 10 1012.5
20260506143028 19 359 0.0 6.4 0.00 0.00 0.00 11 1012.8
20260506141526 17 247 0.0 4.8 0.00 0.00 0.00 13 1013.0
20260506140024 17 172 0.0 4.8 0.00 0.00 0.00 14 1013.1
20260506134523 17 201 0.0 1.6 0.00 0.00 0.00 13 1013.2
20260506133023 17 122 0.0 4.8 0.00 0.00 0.00 14 1013.3
20260506131520 18 83 0.0 4.8 0.00 0.00 0.00 14 1013.4
20260506130018 18 249 0.0 4.8 0.00 0.00 0.00 15 1013.6
20260506124516 17 106 0.0 3.2 0.00 0.00 0.00 15 1013.8
20260506123014 17 181 0.0 12.9 0.00 0.00 0.00 19 1014.0
20260506121511 16 93 0.0 6.4 0.00 0.00 0.00 20 1014.1
20260506120010 16 81 0.0 4.8 0.00 0.00 0.00 19 1014.2
20260506114508 15 189 0.0 1.6 0.00 0.00 0.00 21 1014.3
20260506113010 15 87 0.0 0.0 0.00 0.00 0.00 23 1014.4
20260506111506 15 183 0.0 3.2 0.00 0.00 0.00 24 1014.4
20260506110006 15 183 0.0 9.7 0.00 0.00 0.00 23 1014.5
20260506104504 15 228 0.0 4.8 0.00 0.00 0.00 23 1014.5
20260506103003 16 170 0.0 4.8 0.00 0.00 0.00 24 1014.7
20260506101600 15 177 0.0 1.6 0.00 0.00 0.00 23 1014.6
20260506100057 15 107 0.0 0.0 0.00 0.00 0.00 23 1014.7
20260506094554 13 174 0.0 0.0 0.00 0.00 0.00 27 1014.7
20260506093108 13 161 0.0 4.8 0.00 0.00 0.00 28 1014.7
20260506091551 13 194 0.0 4.8 0.00 0.00 0.00 28 1014.7
20260506090055 13 170 0.0 6.4 0.00 0.00 0.00 29 1014.6
20260506084544 13 179 0.0 4.8 0.00 0.00 0.00 30 1014.6
20260506083041 12 253 0.0 0.0 0.00 0.00 0.00 32 1014.6
20260506081536 12 204 0.0 3.2 0.00 0.00 0.00 33 1014.6
20260506073023 11 207 0.0 0.0 0.00 0.00 0.00 39 1014.6
20260506071519 10 143 0.0 3.2 0.00 0.00 0.00 42 1014.5
20260506061502 7 122 0.0 0.0 0.00 0.00 0.00 52 1014.4
20260506044551 6 143 0.0 0.0 0.00 0.00 0.00 53 1013.7
20260506043052 6 143 0.0 0.0 0.00 0.00 0.00 52 1013.7
20260506041602 6 143 0.0 0.0 0.00 0.00 0.00 52 1013.7
20260506040051 6 143 0.0 0.0 0.00 0.00 0.00 52 1013.6
20260506034545 6 144 0.0 0.0 0.00 0.00 0.00 52 1013.7
20260506033046 6 303 0.0 0.0 0.00 0.00 0.00 51 1013.8
20260506031543 6 303 0.0 0.0 0.00 0.00 0.00 51 1013.9
20260506030038 7 303 0.0 0.0 0.00 0.00 0.00 49 1013.9
20260506024536 7 73 0.0 0.0 0.00 0.00 0.00 47 1013.9
20260506023036 8 22 0.0 0.0 0.00 0.00 0.00 46 1013.8
20260506021532 8 89 0.0 0.0 0.00 0.00 0.00 44 1013.9
20260506020100 8 71 0.0 0.0 0.00 0.00 0.00 43 1013.9
20260506014528 8 24 0.0 0.0 0.00 0.00 0.00 42 1013.7
20260506013026 8 105 0.0 0.0 0.00 0.00 0.00 42 1013.9
20260506011527 8 133 0.0 0.0 0.00 0.00 0.00 42 1013.9
20260506010027 9 162 0.0 9.7 0.00 0.00 0.00 40 1013.9
20260506004524 10 135 0.0 6.4 0.00 0.00 0.00 36 1014.1
20260506003019 11 258 0.0 9.7 0.00 0.00 0.00 29 1014.2
20260506001517 11 228 0.0 24.1 0.00 0.00 0.00 32 1014.2
20260506000020 11 283 0.0 19.3 0.00 0.00 0.00 32 1014.2
20260505234515 10 27 0.0 0.0 0.00 0.00 0.00 36 1014.4
20260505233011 11 117 0.0 11.3 0.00 0.00 0.00 33 1014.4
20260505231513 11 263 0.0 6.4 0.00 0.00 0.00 32 1014.3
20260505230017 11 304 0.0 19.3 0.00 0.00 0.00 31 1014.1
20260505224506 11 280 3.2 20.9 0.00 0.00 0.00 30 1014.1
20260505223004 11 359 1.6 14.5 0.00 0.00 0.00 31 1014.3
20260505221503 11 325 0.0 20.9 0.00 0.00 0.00 31 1014.3